| time (UTC) | temp F | wind direction | speed knots | gust knots | rain 1hr in | rain 24hr in | rain mn in | humidity % | barometer mb |
| 20260505170003 | 40 | 103 | 1.7 | 6.1 | 0.00 | 0.00 | 0.00 | 86 | 1014.0 |
| 20260505165403 | 40 | 111 | 1.7 | 3.5 | 0.00 | 0.00 | 0.00 | 86 | 1014.1 |
| 20260505164716 | 40 | 98 | 1.7 | 6.1 | 0.00 | 0.00 | 0.00 | 86 | 1014.0 |
| 20260505163819 | 40 | 93 | 2.6 | 5.2 | 0.00 | 0.00 | 0.00 | 85 | 1014.0 |
| 20260505162703 | 41 | 97 | 1.7 | 4.3 | 0.00 | 0.00 | 0.00 | 85 | 1013.9 |
| 20260505161803 | 41 | 110 | 1.7 | 5.2 | 0.00 | 0.00 | 0.00 | 84 | 1013.9 |
| 20260505160903 | 41 | 101 | 1.7 | 3.5 | 0.00 | 0.00 | 0.00 | 83 | 1014.0 |
| 20260505160217 | 41 | 91 | 1.7 | 3.5 | 0.00 | 0.00 | 0.00 | 82 | 1013.9 |
| 20260505152703 | 42 | 93 | 1.7 | 5.2 | 0.00 | 0.00 | 0.00 | 82 | 1013.8 |
| 20260505151803 | 42 | 94 | 1.7 | 5.2 | 0.00 | 0.00 | 0.00 | 82 | 1013.7 |
| 20260505150903 | 42 | 95 | 1.7 | 6.1 | 0.00 | 0.00 | 0.00 | 82 | 1013.8 |
| 20260505124503 | 42 | 79 | 0.9 | 3.5 | 0.00 | 0.00 | 0.00 | 81 | 1013.1 |
| 20260505123603 | 42 | 70 | 0.0 | 1.7 | 0.00 | 0.00 | 0.00 | 81 | 1013.2 |
| 20260505122703 | 42 | 66 | 0.9 | 2.6 | 0.00 | 0.00 | 0.00 | 81 | 1013.0 |
| 20260505122016 | 42 | 172 | 0.0 | 2.6 | 0.00 | 0.00 | 0.00 | 80 | 1012.7 |
| 20260505120903 | 42 | 76 | 1.7 | 4.3 | 0.00 | 0.00 | 0.00 | 79 | 1012.4 |
| 20260505120004 | 42 | 91 | 1.7 | 3.5 | 0.00 | 0.00 | 0.00 | 79 | 1012.1 |
| 20260505115619 | 42 | 93 | 1.7 | 3.5 | 0.00 | 0.00 | 0.00 | 78 | 1011.8 |
| 20260505114718 | 43 | 75 | 1.7 | 3.5 | 0.00 | 0.00 | 0.00 | 78 | 1012.0 |
| 20260505113603 | 43 | 101 | 0.9 | 2.6 | 0.00 | 0.00 | 0.00 | 76 | 1011.8 |
| 20260505112703 | 44 | 104 | 0.9 | 2.6 | 0.00 | 0.00 | 0.00 | 76 | 1011.7 |
| 20260505111803 | 44 | 103 | 0.9 | 1.7 | 0.00 | 0.00 | 0.00 | 77 | 1011.8 |
| 20260505110903 | 44 | 99 | 0.9 | 2.6 | 0.00 | 0.00 | 0.00 | 77 | 1011.6 |
| 20260505101803 | 45 | 101 | 0.9 | 1.7 | 0.00 | 0.00 | 0.00 | 77 | 1011.8 |
| 20260505100903 | 45 | 101 | 0.9 | 1.7 | 0.00 | 0.00 | 0.00 | 77 | 1011.8 |
| 20260505100003 | 45 | 101 | 0.0 | 1.7 | 0.00 | 0.00 | 0.00 | 76 | 1011.8 |
| 20260505095618 | 45 | 101 | 0.0 | 2.6 | 0.00 | 0.00 | 0.00 | 76 | 1011.8 |
| 20260505094717 | 46 | 108 | 0.9 | 2.6 | 0.00 | 0.00 | 0.00 | 76 | 1011.8 |
| 20260505093603 | 46 | 26 | 0.0 | 1.7 | 0.00 | 0.00 | 0.00 | 76 | 1011.8 |
| 20260505092703 | 46 | 26 | 0.0 | 0.9 | 0.00 | 0.00 | 0.00 | 74 | 1011.8 |
| 20260505091803 | 47 | 0 | 0.0 | 0.9 | 0.00 | 0.00 | 0.00 | 74 | 1011.8 |
| 20260505090903 | 47 | 26 | 0.0 | 0.9 | 0.00 | 0.00 | 0.00 | 73 | 1011.9 |
| 20260505090003 | 47 | 37 | 0.0 | 1.7 | 0.00 | 0.00 | 0.00 | 72 | 1011.9 |
| 20260505085403 | 47 | 66 | 0.0 | 1.7 | 0.00 | 0.00 | 0.00 | 73 | 1011.6 |
| 20260505084503 | 47 | 34 | 0.0 | 1.7 | 0.00 | 0.00 | 0.00 | 74 | 1011.9 |
| 20260505083603 | 48 | 339 | 0.0 | 2.6 | 0.00 | 0.00 | 0.00 | 75 | 1012.0 |
| 20260505082703 | 48 | 287 | 0.9 | 3.5 | 0.00 | 0.00 | 0.00 | 76 | 1012.2 |
| 20260505081803 | 48 | 286 | 0.0 | 1.7 | 0.00 | 0.00 | 0.00 | 78 | 1012.3 |
| 20260505080903 | 48 | 286 | 0.0 | 1.7 | 0.00 | 0.00 | 0.00 | 79 | 1012.3 |
| 20260505080003 | 48 | 286 | 0.0 | 0.9 | 0.00 | 0.00 | 0.00 | 79 | 1012.2 |
| 20260505075403 | 48 | 0 | 0.0 | 0.9 | 0.00 | 0.00 | 0.00 | 79 | 1012.2 |
| 20260505074503 | 48 | 286 | 0.0 | 2.6 | 0.00 | 0.00 | 0.00 | 78 | 1012.4 |
| 20260505073603 | 48 | 283 | 0.9 | 2.6 | 0.00 | 0.00 | 0.00 | 79 | 1012.4 |
| 20260505072703 | 48 | 301 | 0.9 | 2.6 | 0.00 | 0.00 | 0.00 | 79 | 1012.4 |
| 20260505072018 | 48 | 302 | 0.9 | 3.5 | 0.00 | 0.00 | 0.00 | 79 | 1012.3 |
| 20260505070903 | 48 | 293 | 0.9 | 3.5 | 0.00 | 0.00 | 0.00 | 78 | 1012.4 |
| 20260505070003 | 49 | 300 | 0.9 | 2.6 | 0.00 | 0.00 | 0.00 | 78 | 1012.4 |
| 20260505065403 | 49 | 305 | 0.9 | 3.5 | 0.00 | 0.00 | 0.00 | 78 | 1012.4 |
| 20260505064503 | 49 | 310 | 0.9 | 1.7 | 0.00 | 0.00 | 0.00 | 77 | 1012.3 |
| 20260505063603 | 49 | 304 | 0.9 | 2.6 | 0.00 | 0.00 | 0.00 | 76 | 1012.4 |
| 20260505062703 | 50 | 288 | 0.9 | 1.7 | 0.00 | 0.00 | 0.00 | 75 | 1012.5 |
| 20260505061803 | 50 | 281 | 0.0 | 2.6 | 0.00 | 0.00 | 0.00 | 73 | 1012.4 |
| 20260505060903 | 50 | 284 | 0.9 | 3.5 | 0.00 | 0.00 | 0.00 | 73 | 1012.7 |
| 20260505060004 | 50 | 303 | 0.9 | 4.3 | 0.00 | 0.00 | 0.00 | 72 | 1012.6 |
| 20260505055403 | 51 | 301 | 1.7 | 5.2 | 0.00 | 0.00 | 0.00 | 70 | 1012.7 |
| 20260505054503 | 51 | 296 | 1.7 | 6.1 | 0.00 | 0.00 | 0.00 | 69 | 1012.6 |
| 20260505053603 | 51 | 293 | 1.7 | 6.1 | 0.00 | 0.00 | 0.00 | 68 | 1012.4 |
| 20260505052703 | 51 | 307 | 1.7 | 6.1 | 0.00 | 0.00 | 0.00 | 67 | 1012.5 |
| 20260505051803 | 51 | 296 | 1.7 | 3.5 | 0.00 | 0.00 | 0.00 | 66 | 1012.4 |
| 20260505050903 | 51 | 289 | 2.6 | 7.8 | 0.00 | 0.00 | 0.00 | 66 | 1012.3 |
| 20260505040903 | 52 | 294 | 1.7 | 5.2 | 0.00 | 0.00 | 0.00 | 64 | 1011.8 |
| 20260505040004 | 52 | 285 | 1.7 | 6.1 | 0.00 | 0.00 | 0.00 | 63 | 1011.8 |
| 20260505035403 | 52 | 290 | 1.7 | 7.0 | 0.00 | 0.00 | 0.00 | 62 | 1011.9 |
| 20260505034503 | 52 | 296 | 1.7 | 7.0 | 0.00 | 0.00 | 0.00 | 62 | 1011.9 |
| 20260505033603 | 52 | 295 | 1.7 | 6.1 | 0.00 | 0.00 | 0.00 | 62 | 1011.9 |
| 20260505032703 | 53 | 299 | 0.9 | 3.5 | 0.00 | 0.00 | 0.00 | 61 | 1011.8 |
| 20260505031803 | 53 | 295 | 2.6 | 7.0 | 0.00 | 0.00 | 0.00 | 61 | 1011.4 |
| 20260505030903 | 53 | 292 | 2.6 | 7.0 | 0.00 | 0.00 | 0.00 | 60 | 1011.1 |
| 20260505030216 | 53 | 288 | 2.6 | 8.7 | 0.00 | 0.00 | 0.00 | 58 | 1010.8 |
| 20260505025403 | 53 | 294 | 2.6 | 7.8 | 0.00 | 0.00 | 0.00 | 57 | 1010.7 |
| 20260505024719 | 54 | 307 | 1.7 | 7.8 | 0.00 | 0.00 | 0.00 | 57 | 1010.8 |
| 20260505023603 | 54 | 296 | 3.5 | 8.7 | 0.00 | 0.00 | 0.00 | 56 | 1011.1 |
| 20260505022917 | 54 | 293 | 2.6 | 7.8 | 0.00 | 0.00 | 0.00 | 56 | 1010.7 |
| 20260505021803 | 55 | 312 | 1.7 | 7.8 | 0.00 | 0.00 | 0.00 | 55 | 1010.7 |
| 20260505021116 | 55 | 298 | 2.6 | 8.7 | 0.00 | 0.00 | 0.00 | 54 | 1010.7 |
| 20260505020215 | 55 | 288 | 4.3 | 9.6 | 0.00 | 0.00 | 0.00 | 54 | 1011.2 |
| 20260505015619 | 55 | 288 | 4.3 | 13.0 | 0.00 | 0.00 | 0.00 | 55 | 1011.1 |
| 20260505014503 | 55 | 296 | 4.3 | 12.2 | 0.00 | 0.00 | 0.00 | 54 | 1010.7 |
| 20260505013603 | 56 | 291 | 6.1 | 12.2 | 0.00 | 0.00 | 0.00 | 56 | 1010.1 |
| 20260505012917 | 57 | 286 | 7.0 | 14.8 | 0.00 | 0.00 | 0.00 | 51 | 1010.0 |
| 20260505011803 | 59 | 284 | 7.0 | 14.8 | 0.00 | 0.00 | 0.00 | 45 | 1010.0 |
| 20260505010903 | 60 | 286 | 5.2 | 14.8 | 0.00 | 0.00 | 0.00 | 42 | 1009.7 |
| 20260505010003 | 61 | 31 | 1.7 | 8.7 | 0.00 | 0.00 | 0.00 | 41 | 1009.3 |
| 20260505005403 | 62 | 71 | 2.6 | 8.7 | 0.00 | 0.00 | 0.00 | 40 | 1009.1 |
| 20260505004718 | 62 | 10 | 2.6 | 7.0 | 0.00 | 0.00 | 0.00 | 39 | 1009.1 |
| 20260505003603 | 64 | 53 | 0.9 | 6.1 | 0.00 | 0.00 | 0.00 | 33 | 1008.9 |
| 20260505002703 | 65 | 290 | 0.9 | 3.5 | 0.00 | 0.00 | 0.00 | 33 | 1008.8 |
| 20260505001803 | 65 | 298 | 0.0 | 1.7 | 0.00 | 0.00 | 0.00 | 32 | 1009.0 |
| 20260505001119 | 65 | 302 | 0.9 | 2.6 | 0.00 | 0.00 | 0.00 | 32 | 1008.8 |
| 20260505000003 | 66 | 289 | 0.9 | 3.5 | 0.00 | 0.00 | 0.00 | 32 | 1008.6 |
| 20260504235403 | 66 | 54 | 0.9 | 3.5 | 0.00 | 0.00 | 0.00 | 32 | 1008.4 |
| 20260504234503 | 66 | 42 | 0.9 | 3.5 | 0.00 | 0.00 | 0.00 | 32 | 1008.0 |
| 20260504233603 | 66 | 284 | 0.9 | 5.2 | 0.00 | 0.00 | 0.00 | 32 | 1007.9 |
| 20260504232703 | 66 | 17 | 0.9 | 2.6 | 0.00 | 0.00 | 0.00 | 32 | 1008.0 |
| 20260504232016 | 66 | 60 | 0.9 | 2.6 | 0.00 | 0.00 | 0.00 | 33 | 1008.1 |
| 20260504230903 | 65 | 346 | 0.9 | 4.3 | 0.00 | 0.00 | 0.00 | 32 | 1008.1 |
| 20260504230003 | 65 | 324 | 0.9 | 4.3 | 0.00 | 0.00 | 0.00 | 34 | 1007.9 |
| 20260504225403 | 65 | 289 | 2.6 | 7.8 | 0.00 | 0.00 | 0.00 | 33 | 1008.0 |
| 20260504224503 | 65 | 281 | 5.2 | 11.3 | 0.00 | 0.00 | 0.00 | 33 | 1008.2 |
| 20260504223817 | 65 | 284 | 5.2 | 10.4 | 0.00 | 0.00 | 0.00 | 34 | 1008.3 |
| 20260504222703 | 65 | 291 | 6.1 | 11.3 | 0.00 | 0.00 | 0.00 | 32 | 1008.4 |
| 20260504221803 | 65 | 284 | 7.0 | 12.2 | 0.00 | 0.00 | 0.00 | 32 | 1008.4 |
| 20260504220903 | 65 | 295 | 5.2 | 12.2 | 0.00 | 0.00 | 0.00 | 32 | 1008.2 |
| 20260504220003 | 66 | 284 | 7.8 | 15.6 | 0.00 | 0.00 | 0.00 | 32 | 1008.2 |
| 20260504215403 | 68 | 284 | 6.1 | 15.6 | 0.00 | 0.00 | 0.00 | 30 | 1007.5 |
| 20260504214503 | 70 | 289 | 1.7 | 7.8 | 0.00 | 0.00 | 0.00 | 22 | 1007.5 |
| 20260504213603 | 71 | 192 | 0.0 | 2.6 | 0.00 | 0.00 | 0.00 | 22 | 1007.6 |
| 20260504212703 | 72 | 102 | 0.0 | 1.7 | 0.00 | 0.00 | 0.00 | 21 | 1007.3 |
| 20260504211803 | 72 | 86 | 1.7 | 4.3 | 0.00 | 0.00 | 0.00 | 21 | 1007.4 |
| 20260504211118 | 73 | 104 | 0.9 | 5.2 | 0.00 | 0.00 | 0.00 | 20 | 1007.6 |
| 20260504210003 | 73 | 77 | 0.9 | 4.3 | 0.00 | 0.00 | 0.00 | 21 | 1007.6 |
| 20260504205403 | 73 | 58 | 0.9 | 2.6 | 0.00 | 0.00 | 0.00 | 19 | 1007.6 |
| 20260504204503 | 74 | 259 | 0.9 | 3.5 | 0.00 | 0.00 | 0.00 | 18 | 1007.7 |
| 20260504203603 | 74 | 219 | 1.7 | 4.3 | 0.00 | 0.00 | 0.00 | 20 | 1007.9 |
| 20260504202703 | 74 | 257 | 0.9 | 5.2 | 0.00 | 0.00 | 0.00 | 24 | 1008.0 |
| 20260504201803 | 73 | 260 | 2.6 | 7.0 | 0.00 | 0.00 | 0.00 | 22 | 1008.2 |
| 20260504200903 | 73 | 250 | 2.6 | 7.0 | 0.00 | 0.00 | 0.00 | 23 | 1008.4 |
| 20260504200003 | 74 | 250 | 1.7 | 7.8 | 0.00 | 0.00 | 0.00 | 22 | 1008.3 |
| 20260504195403 | 73 | 217 | 1.7 | 3.5 | 0.00 | 0.00 | 0.00 | 21 | 1008.6 |
| 20260504194503 | 72 | 115 | 0.9 | 2.6 | 0.00 | 0.00 | 0.00 | 21 | 1008.6 |
| 20260504193815 | 72 | 169 | 1.7 | 3.5 | 0.00 | 0.00 | 0.00 | 20 | 1008.6 |
| 20260504192919 | 71 | 200 | 0.9 | 1.7 | 0.00 | 0.00 | 0.00 | 22 | 1008.8 |
| 20260504191803 | 71 | 286 | 0.9 | 2.6 | 0.00 | 0.00 | 0.00 | 21 | 1008.9 |
| 20260504190903 | 71 | 290 | 0.9 | 4.3 | 0.00 | 0.00 | 0.00 | 19 | 1009.0 |
| 20260504190003 | 71 | 279 | 1.7 | 5.2 | 0.00 | 0.00 | 0.00 | 18 | 1009.2 |
| 20260504185403 | 72 | 271 | 1.7 | 4.3 | 0.00 | 0.00 | 0.00 | 21 | 1009.1 |
| 20260504184503 | 71 | 278 | 2.6 | 7.8 | 0.00 | 0.00 | 0.00 | 21 | 1009.2 |
| 20260504183603 | 71 | 283 | 2.6 | 6.1 | 0.00 | 0.00 | 0.00 | 21 | 1009.4 |
| 20260504182703 | 71 | 317 | 1.7 | 6.1 | 0.00 | 0.00 | 0.00 | 22 | 1009.4 |
| 20260504181803 | 69 | 298 | 0.9 | 5.2 | 0.00 | 0.00 | 0.00 | 25 | 1009.6 |
| 20260504180903 | 68 | 283 | 2.6 | 7.0 | 0.00 | 0.00 | 0.00 | 22 | 1009.8 |
| 20260504180003 | 68 | 296 | 3.5 | 8.7 | 0.00 | 0.00 | 0.00 | 21 | 1009.7 |
| 20260504175403 | 68 | 285 | 3.5 | 10.4 | 0.00 | 0.00 | 0.00 | 22 | 1009.8 |
| 20260504174503 | 68 | 277 | 3.5 | 7.8 | 0.00 | 0.00 | 0.00 | 23 | 1009.8 |
| 20260504173603 | 69 | 275 | 2.6 | 9.6 | 0.00 | 0.00 | 0.00 | 24 | 1009.9 |
| 20260504172918 | 69 | 28 | 0.9 | 4.3 | 0.00 | 0.00 | 0.00 | 24 | 1010.0 |
| 20260504171803 | 69 | 285 | 1.7 | 6.1 | 0.00 | 0.00 | 0.00 | 24 | 1010.0 |
| 20260504170903 | 69 | 284 | 2.6 | 6.1 | 0.00 | 0.00 | 0.00 | 23 | 1010.4 |